Weather History for KPDK - August, 2012

Change the Weather History Date:

Tuesday, August 14, 2012

  Actual Average Record
Temperature  
Mean Temperature 75 °F 79 °F  
Max Temperature 86 °F 89 °F 98 °F (2007)
Min Temperature 66 °F 70 °F 55 °F (2004)
Cooling Degree Days 10 14  
Month to date cooling degree days 207  
Year to date cooling degree days 1230  
Since 1 June cooling degree days 1019  
Growing Degree Days 25 (Base 50)    
Moisture  
Dew Point 69 °F    
Average Humidity 85    
Maximum Humidity 100    
Minimum Humidity 63    
Precipitation  
Precipitation 0.46 in 0.14 in 1.25 in (1998)
Month to date precipitation 2.24  
Year to date precipitation 34.51  
Sea Level Pressure  
Sea Level Pressure 29.95 in    
Wind  
Wind Speed 3 mph (SW)    
Max Wind Speed 10 mph    
Max Gust Speed 21 mph    
Visibility 8 miles    
Events Rain , Thunderstorm    
T = Trace of Precipitation, MM = Missing Value Source: NWS Daily Summary

Daily Weather History Graph

Daily Weather History Graph

Search for Another Location

Airport or City:

Trip Planner

Search our weather history database for the weather conditions in past years. The results will help you decide how hot, cold, wet, or windy it might be!

Date:

Astronomy

Aug. 14, 2012 Rise Set
Actual Time 6:58 AM EDT 8:24 PM EDT
Civil Twilight 6:32 AM EDT 8:50 PM EDT
Nautical Twilight 6:00 AM EDT 9:22 PM EDT
Astronomical Twilight 5:27 AM EDT 9:55 PM EDT
Moon 4:00 AM EDT (8/14) 6:14 PM EDT (8/14)
Length of Visible Light 14h 18m
Length of Day
13h 25m
Waning Crescent, 10% of the Moon is Illuminated
Aug 14
Waning Crescent
Aug 17
New
Aug 24
First Quarter
Aug 31
Full
Sep 8
Last Quarter

Hourly Weather History & Observations

Time (EDT) Temp. Heat Index Dew Point Humidity Pressure Visibility Wind Dir Wind Speed Gust Speed Precip Events Conditions
12:53 AM 68.0 °F - 66.9 °F 96% 29.97 in 5.0 mi Calm Calm - N/A   Scattered Clouds
1:53 AM 66.9 °F - 66.9 °F 100% 29.96 in 4.0 mi Calm Calm - N/A   Scattered Clouds
2:53 AM 66.9 °F - 66.0 °F 97% 29.94 in 4.0 mi Calm Calm - N/A   Scattered Clouds
3:53 AM 68.0 °F - 66.9 °F 96% 29.94 in 5.0 mi Calm Calm - N/A   Partly Cloudy
4:53 AM 69.1 °F - 68.0 °F 96% 29.96 in 2.5 mi Calm Calm - 0.06 in Rain , Thunderstorm Rain
4:58 AM 69.8 °F - 68.0 °F 94% 30.02 in 0.8 mi Calm Calm - 0.19 in Rain , Thunderstorm Heavy Rain
5:10 AM 68.0 °F - 68.0 °F 100% 30.02 in 2.0 mi SW 8.1 mph 20.7 mph 0.27 in Rain , Thunderstorm Rain
5:19 AM 69.8 °F - 66.2 °F 88% 30.01 in 4.0 mi SW 9.2 mph 16.1 mph 0.29 in Rain , Thunderstorm Rain
5:31 AM 69.8 °F - 66.2 °F 88% 30.00 in 10.0 mi WSW 6.9 mph - 0.29 in Rain Light Rain
5:53 AM 68.0 °F - 64.9 °F 90% 29.95 in 10.0 mi Variable 4.6 mph - 0.29 in Rain Light Rain
6:53 AM 66.9 °F - 66.0 °F 97% 29.94 in 10.0 mi Calm Calm - 0.00 in   Partly Cloudy
7:53 AM 68.0 °F - 66.9 °F 96% 29.96 in 8.0 mi NE 3.5 mph - N/A   Clear
8:53 AM 69.1 °F - 66.9 °F 93% 29.99 in 7.0 mi Calm Calm - 0.00 in   Scattered Clouds
9:53 AM 69.1 °F - 68.0 °F 96% 30.00 in 3.0 mi SSE 4.6 mph - 0.07 in Rain Light Rain
10:53 AM 72.0 °F - 69.1 °F 91% 29.99 in 10.0 mi SSE 4.6 mph - 0.02 in   Clear
11:53 AM 73.9 °F - 69.1 °F 85% 29.97 in 10.0 mi Calm Calm - N/A   Partly Cloudy
12:53 PM 78.1 °F - 70.0 °F 76% 29.95 in 10.0 mi Calm Calm - N/A   Scattered Clouds
1:53 PM 82.0 °F 86.3 °F 71.1 °F 69% 29.94 in 10.0 mi WSW 5.8 mph - N/A   Scattered Clouds
2:17 PM 80.6 °F 83.9 °F 69.8 °F 70% 29.98 in 10.0 mi WSW 6.9 mph - N/A   Mostly Cloudy
2:51 PM 82.4 °F 86.3 °F 69.8 °F 66% 29.97 in 10.0 mi West 9.2 mph - N/A   Mostly Cloudy
2:53 PM 81.0 °F 84.4 °F 70.0 °F 69% 29.93 in 10.0 mi West 10.4 mph - N/A   Mostly Cloudy
3:53 PM 82.9 °F 87.0 °F 70.0 °F 65% 29.90 in 9.0 mi Variable 5.8 mph - N/A   Partly Cloudy
4:53 PM 84.0 °F 88.4 °F 70.0 °F 63% 29.87 in 10.0 mi SSW 6.9 mph - N/A   Scattered Clouds
5:53 PM 80.1 °F 82.7 °F 68.0 °F 67% 29.89 in 10.0 mi North 9.2 mph - N/A   Mostly Cloudy
6:53 PM 84.0 °F 89.0 °F 71.1 °F 65% 29.88 in 10.0 mi NW 3.5 mph - N/A   Mostly Cloudy
7:53 PM 78.1 °F - 72.0 °F 81% 29.88 in 10.0 mi South 3.5 mph - N/A   Clear
8:53 PM 77.0 °F - 73.0 °F 88% 29.91 in 9.0 mi Calm Calm - N/A   Mostly Cloudy
9:53 PM 75.0 °F - 73.0 °F 94% 29.92 in 8.0 mi Calm Calm - 0.02 in   Mostly Cloudy
10:53 PM 73.0 °F - 71.1 °F 93% 29.94 in 8.0 mi Calm Calm - N/A   Partly Cloudy
11:53 PM 75.0 °F - 72.0 °F 90% 29.92 in 10.0 mi SW 6.9 mph - N/A   Clear